TimeMDT,TemperatureF,Dew PointF,Humidity,Sea Level PressureIn,VisibilityMPH,Wind Direction,Wind SpeedMPH,Gust SpeedMPH,PrecipitationIn,Events,Conditions,WindDirDegrees,DateUTC
12:02 AM,32.0,30.2,93,30.30,7.0,ENE,6.9,-,0.00,Snow,Light Snow,70,2012-10-06 06:02:00
12:14 AM,32.0,30.2,93,30.29,7.0,ENE,8.1,-,0.00,Snow,Light Snow,70,2012-10-06 06:14:00
12:33 AM,32.0,30.2,93,30.29,1.8,ENE,8.1,-,0.01,Snow,Light Snow,60,2012-10-06 06:33:00
12:53 AM,32.0,30.9,96,30.36,1.2,ENE,8.1,-,0.02,Snow,Light Snow,60,2012-10-06 06:53:00
1:23 AM,32.0,30.2,93,30.28,2.0,ENE,10.4,-,0.00,Snow,Light Snow,60,2012-10-06 07:23:00
1:40 AM,32.0,30.2,93,30.29,3.0,ENE,9.2,-,0.01,Snow,Light Snow,60,2012-10-06 07:40:00
1:53 AM,32.0,30.9,96,30.36,4.0,ENE,9.2,-,0.01,Snow,Light Snow,60,2012-10-06 07:53:00
2:53 AM,32.0,30.9,96,30.35,4.0,ENE,8.1,-,0.00,Snow,Light Snow,60,2012-10-06 08:53:00
3:01 AM,32.0,30.2,93,30.27,7.0,ENE,9.2,-,0.00,Snow,Light Snow,60,2012-10-06 09:01:00
3:35 AM,32.0,30.2,93,30.27,10.0,ENE,8.1,-,0.00,,Mostly Cloudy,60,2012-10-06 09:35:00
3:53 AM,32.0,30.9,96,30.33,10.0,ENE,5.8,-,0.00,,Overcast,70,2012-10-06 09:53:00
4:01 AM,32.0,30.2,93,30.26,10.0,ENE,6.9,-,N/A,,Overcast,60,2012-10-06 10:01:00
4:32 AM,32.0,30.2,93,30.27,4.0,NE,4.6,-,0.00,Snow,Light Snow,50,2012-10-06 10:32:00
4:53 AM,32.0,30.9,96,30.34,3.0,NE,6.9,-,0.00,Snow,Light Snow,50,2012-10-06 10:53:00
5:00 AM,32.0,30.2,93,30.27,1.8,NE,8.1,-,0.00,Snow,Light Snow,50,2012-10-06 11:00:00
5:10 AM,32.0,30.2,93,30.28,1.8,NE,6.9,-,0.01,Snow,Light Snow,50,2012-10-06 11:10:00
5:53 AM,30.9,30.0,96,30.36,1.0,ENE,5.8,-,0.03,Snow,Light Snow,60,2012-10-06 11:53:00
6:19 AM,30.2,30.2,100,30.30,1.2,NE,6.9,-,0.01,Snow,Light Snow,40,2012-10-06 12:19:00
6:37 AM,30.2,30.2,100,30.30,1.5,NE,5.8,-,0.02,Snow,Light Snow,50,2012-10-06 12:37:00
6:53 AM,30.9,30.0,96,30.38,2.0,NE,5.8,-,0.02,Snow,Light Snow,40,2012-10-06 12:53:00
7:08 AM,30.2,30.2,100,30.31,1.0,NNE,5.8,-,0.01,Snow,Light Snow,30,2012-10-06 13:08:00
7:18 AM,30.2,30.2,100,30.31,0.8,NNE,6.9,-,0.02,Snow,Light Snow,20,2012-10-06 13:18:00
7:34 AM,30.2,30.2,100,30.31,0.5,NNE,6.9,-,0.03,Fog-Snow,Snow,20,2012-10-06 13:34:00
7:53 AM,30.0,30.0,100,30.40,0.5,North,8.1,-,0.05,Fog-Snow,Snow,10,2012-10-06 13:53:00
8:02 AM,30.2,30.2,100,30.32,0.8,North,8.1,-,0.00,Snow,Light Snow,10,2012-10-06 14:02:00
8:53 AM,30.9,30.0,96,30.43,0.8,NNE,6.9,-,0.03,Snow,Light Snow,20,2012-10-06 14:53:00
8:58 AM,30.2,30.2,100,30.34,0.8,North,5.8,-,0.00,Snow,Light Snow,10,2012-10-06 14:58:00
9:07 AM,30.2,30.2,100,30.35,1.0,NNE,8.1,-,0.00,Snow,Light Snow,20,2012-10-06 15:07:00
9:16 AM,30.2,30.2,100,30.35,0.8,NNE,8.1,-,0.00,Snow,Light Snow,20,2012-10-06 15:16:00
9:26 AM,30.2,30.2,100,30.35,0.5,NNE,8.1,-,0.01,Fog-Snow,Snow,20,2012-10-06 15:26:00
9:53 AM,30.9,30.0,96,30.44,0.8,NNE,8.1,-,0.02,Snow,Light Snow,20,2012-10-06 15:53:00
9:59 AM,30.2,30.2,100,30.36,1.0,NNE,8.1,-,0.00,Snow,Light Snow,30,2012-10-06 15:59:00
10:32 AM,32.0,28.4,87,30.36,1.2,North,9.2,-,0.01,Snow,Light Snow,10,2012-10-06 16:32:00
10:53 AM,32.0,28.9,88,30.44,1.5,NNE,10.4,-,0.01,Snow,Light Snow,30,2012-10-06 16:53:00
11:10 AM,32.0,30.2,93,30.36,2.5,NNE,9.2,-,0.00,Snow,Light Snow,30,2012-10-06 17:10:00
11:23 AM,32.0,28.4,87,30.36,1.5,NNE,9.2,-,0.00,Snow,Light Snow,30,2012-10-06 17:23:00
11:39 AM,32.0,28.4,87,30.36,3.0,NE,9.2,-,0.00,Snow,Light Snow,50,2012-10-06 17:39:00
11:53 AM,33.1,30.0,89,30.44,3.0,NE,5.8,-,0.00,Snow,Light Snow,50,2012-10-06 17:53:00
12:53 PM,34.0,30.0,85,30.43,7.0,NNE,3.5,-,0.00,Snow,Light Snow,20,2012-10-06 18:53:00
1:18 PM,33.8,28.4,81,30.35,10.0,North,3.5,-,0.00,,Overcast,10,2012-10-06 19:18:00
1:36 PM,35.6,28.4,75,30.34,10.0,Calm,Calm,-,0.00,,Overcast,0,2012-10-06 19:36:00
1:53 PM,35.1,30.0,82,30.40,10.0,North,3.5,-,0.00,,Overcast,10,2012-10-06 19:53:00
2:37 PM,37.4,28.4,70,30.32,10.0,NNW,3.5,-,N/A,,Overcast,340,2012-10-06 20:37:00
2:53 PM,37.0,28.9,73,30.38,10.0,Calm,Calm,-,N/A,,Overcast,0,2012-10-06 20:53:00
3:53 PM,37.9,27.0,65,30.36,10.0,Variable,3.5,-,N/A,,Overcast,0,2012-10-06 21:53:00
5:53 PM,37.0,27.0,67,30.34,10.0,East,3.5,-,N/A,,Scattered Clouds,90,2012-10-06 23:53:00
6:20 PM,35.6,28.4,75,30.28,10.0,South,10.4,-,N/A,,Mostly Cloudy,190,2012-10-07 00:20:00
6:29 PM,33.8,28.4,81,30.28,10.0,South,9.2,-,N/A,,Mostly Cloudy,190,2012-10-07 00:29:00
6:53 PM,32.0,27.0,82,30.36,10.0,SSW,6.9,-,N/A,,Clear,200,2012-10-07 00:53:00
7:53 PM,32.0,27.0,82,30.36,10.0,SSW,3.5,-,N/A,,Clear,200,2012-10-07 01:53:00
8:53 PM,30.0,26.1,85,30.35,10.0,Calm,Calm,-,N/A,,Clear,0,2012-10-07 02:53:00
10:53 PM,24.1,23.0,96,30.34,10.0,Calm,Calm,-,N/A,,Clear,0,2012-10-07 04:53:00
11:53 PM,25.0,23.0,92,30.32,10.0,SE,4.6,-,N/A,,Clear,140,2012-10-07 05:53:00